Weather Service Report


818 
ASUS42 KRAH 272110
RWRRAH
NORTH CAROLINA WEATHER ROUNDUP
NATIONAL WEATHER SERVICE RALEIGH NC
500 PM EDT FRI MAR 27 2015

NOTE: "FAIR" INDICATES FEW OR NO CLOUDS BELOW 12,000 FEET WITH NO
SIGNIFICANT WEATHER AND/OR OBSTRUCTIONS TO VISIBILITY.

NCZ001-053-055-056-065-067-272200-
WESTERN NORTH CAROLINA
  
CITY           SKY/WX    TMP DP  RH WIND       PRES   REMARKS
ASHEVILLE      PTSUNNY   46  25  43 N20G35    29.77S                  
JEFFERSON      CLOUDY    40  21  47 NW15      29.72F WCI  31          
MORGANTON      CLOUDY    48  29  48 NW8       29.82R                  
HICKORY        CLOUDY    48  28  46 NW7       29.76R                  
RUTHERFORDTON  CLOUDY    47  32  55 N9        29.78S                  
MOUNT AIRY     CLOUDY    48  32  52 N6        29.77F                  
BOONE          PTSUNNY   39  22  50 NW14G29   29.74F WCI  31          
$$
 
NCZ021-022-025-041-071-084-088-272200-
CENTRAL NORTH CAROLINA
  
CITY           SKY/WX    TMP DP  RH WIND       PRES   REMARKS
CHARLOTTE      CLOUDY    48  37  65 N9        29.77S                  
GREENSBORO     CLOUDY    45  38  76 CALM      29.76S                  
WINSTON-SALEM  CLOUDY    46  34  62 N6        29.77S                  
RALEIGH-DURHAM DRIZZLE   44  40  85 NE9       29.78R                  
FORT BRAGG     LGT RAIN  46  45  93 N6        29.74R                  
FAYETTEVILLE   CLOUDY    47  44  90 N20       29.73R FOG              
BURLINGTON     LGT RAIN  45  40  82 N5        29.76S                  
LAURINBURG     CLOUDY    48  43  82 NE20G25   29.74R HAZE             
$$
 
NCZ011-015-027-028-043-044-047-080-103-272200-
NORTHEASTERN NORTH CAROLINA
  
CITY           SKY/WX    TMP DP  RH WIND       PRES   REMARKS
ROCKY MT-WILSO CLOUDY    44  41  89 N12       29.76F                  
GREENVILLE     LGT RAIN  45  43  93 NE10      29.77F                  
WASHINGTON     RAIN      44  42  93 NE8       29.74R                  
ELIZABETH CITY LGT RAIN  43  41  93 N16       29.74S                  
MANTEO         LGT RAIN  42  41  97 NE22      29.69F                  
CAPE HATTERAS  CLOUDY    44  40  85 N14G31    29.71R                  
$$
 
NCZ078-087-090-091-093-098-101-272200-
SOUTHEASTERN NORTH CAROLINA
  
CITY           SKY/WX    TMP DP  RH WIND       PRES   REMARKS
LUMBERTON      CLOUDY    49  45  86 NE16      29.72R                  
GOLDSBORO      LGT RAIN  45  45 100 N13       29.72S                  
KINSTON        RAIN      46  45  93 NE9       29.73S                  
KENANSVILLE    LGT RAIN  46  44  95 NE7G18    29.71F                  
NEW BERN       TSTM      46  42  86 NE13      29.73R FOG              
CHERRY POINT   LGT RAIN  48  45  89 NE16G24   29.73R FOG              
BEAUFORT       CLOUDY    47  46  97 NE12G18   29.67F                  
JACKSONVILLE   LGT RAIN  48  45  89 NE13      29.69F FOG              
WILMINGTON     RAIN      49  47  93 N13       29.68S FOG              
$$


Return to Home page


Western Regional Climate Center, wrcc@dri.edu